Location: Oroua River
(40.4333°S, 175.4333°E)
Time: 15:07:32
(UTC+00:00)

Cosmos 1634 Rocket - Pass Details

Date: 03 February 2023
Orbit: 960 x 992 km, 82.9° (Epoch: 22 March)

Event Time Altitude Azimuth Distance (km) Brightness Sun altitude
Rises 16:35:51 0° 2° (N) 3,654 6.7 -9.8°
Reaches altitude 10° 16:38:20 10° 4° (N) 2,719 6.1 -9.4°
Maximum altitude 16:44:33 71° 86° (E) 1,045 4.4 -8.4°
Drops below altitude 10° 16:50:52 10° 168° (SSE) 2,774 7.0 -7.4°
Sets 16:53:26 0° 170° (S) 3,733 7.7 -6.9°
